Location: Asheville, NC
(35.6000°N, 82.5500°W)
Time: 07:07:37
(UTC-05:00)

Vanguard 1 - Pass Details

Date: 14 February 2018
Orbit: 650 x 3833 km, 34.2° (Epoch: 19 February)

Event Time Altitude Azimuth Distance (km) Brightness Sun altitude
Rises 21:20:38 0° 277° (W) 3,170 13.6 -38.9°
Reaches altitude 10° 21:23:13 10° 270° (W) 2,109 12.4 -39.4°
Enters shadow 21:23:49 13° 268° (W) 1,870 12.1 -39.5°
Maximum altitude 21:27:30 43° 198° (SSW) 901 - -40.3°
Drops below altitude 10° 21:31:58 10° 126° (SE) 2,199 - -41.1°
Sets 21:34:42 0° 120° (ESE) 3,326 - -41.7°
